^^
Your Local Weather - Clay, NY Station Historical Data
Daily Summary for April 8, 2017 Units:  English    Metric   Both
« Previous Day
Next Day »
Daily Weekly Monthly Yearly Custom
  High: Low: Average:
Temperature: 46.7 °F 31.6 °F 38.9 °F
Dew Point: 30.8 °F 18.4 °F 24.4 °F
Humidity: 73% 35% 57%
Wind Speed: 7.0mph 0.0mph 3.7mph
Wind Gust: 13.0mph - -
Wind- - WNW
Pressure: 29.98 in 29.69 in -
Precipitation: 0.01 in    
Historical Graphs
 
 
Tabular Data for April 8, 2017
Time Temperature Dew Point Pressure Wind Wind Speed Wind Gust Humidity Rainfall Rate (Hourly) solar
00:00 36.4 °F 27.2 °F 29.69 in WNW 4.0 mph 4.0 mph 69% 0.00 in 0 W/m2
00:06 36.3 °F 26.7 °F 29.69 in NW 5.0 mph 5.0 mph 68% 0.00 in 0 W/m2
00:12 36.3 °F 26.7 °F 29.69 in NNW 5.0 mph 6.0 mph 68% 0.00 in 0 W/m2
00:18 36.3 °F 26.4 °F 29.69 in NNW 5.0 mph 8.0 mph 67% 0.00 in 0 W/m2
00:24 36.2 °F 26.3 °F 29.69 in NNW 4.0 mph 8.0 mph 67% 0.00 in 0 W/m2
00:30 36.2 °F 26.6 °F 29.69 in WNW 4.0 mph 4.0 mph 68% 0.00 in 0 W/m2
00:36 36.1 °F 26.9 °F 29.69 in WNW 2.0 mph 4.0 mph 69% 0.00 in 0 W/m2
00:42 36.1 °F 27.3 °F 29.69 in NW 3.0 mph 3.0 mph 70% 0.00 in 0 W/m2
00:48 36.0 °F 27.5 °F 29.70 in WNW 4.0 mph 5.0 mph 71% 0.00 in 0 W/m2
00:54 36.1 °F 27.3 °F 29.70 in WSW 4.0 mph 6.0 mph 70% 0.00 in 0 W/m2
01:00 36.1 °F 26.9 °F 29.70 in West 5.0 mph 9.0 mph 69% 0.00 in 0 W/m2
01:06 36.1 °F 26.9 °F 29.70 in WNW 4.0 mph 9.0 mph 69% 0.00 in 0 W/m2
01:12 36.1 °F 26.6 °F 29.70 in NW 3.0 mph 5.0 mph 68% 0.00 in 0 W/m2
01:18 36.1 °F 26.6 °F 29.70 in NW 4.0 mph 5.0 mph 68% 0.00 in 0 W/m2
01:24 36.1 °F 26.9 °F 29.70 in WNW 4.0 mph 5.0 mph 69% 0.00 in 0 W/m2
01:30 36.1 °F 27.3 °F 29.70 in NW 2.0 mph 3.0 mph 70% 0.00 in 0 W/m2
01:36 36.1 °F 26.9 °F 29.70 in West 4.0 mph 9.0 mph 69% 0.00 in 0 W/m2
01:42 36.1 °F 26.6 °F 29.70 in NW 5.0 mph 5.0 mph 68% 0.00 in 0 W/m2
01:48 36.1 °F 26.2 °F 29.70 in NW 5.0 mph 12.0 mph 67% 0.00 in 0 W/m2
01:54 36.1 °F 26.6 °F 29.71 in NW 5.0 mph 6.0 mph 68% 0.00 in 0 W/m2
02:00 35.9 °F 26.4 °F 29.71 in WNW 4.0 mph 6.0 mph 68% 0.00 in 0 W/m2
02:04 35.8 °F 26.3 °F 29.71 in NNW 4.0 mph 12.0 mph 68% 0.00 in 0 W/m2
02:10 35.7 °F 25.8 °F 29.71 in WNW 4.0 mph 8.0 mph 67% 0.00 in 0 W/m2
02:16 35.7 °F 25.1 °F 29.71 in WNW 5.0 mph 8.0 mph 65% 0.00 in 0 W/m2
02:22 35.6 °F 25.4 °F 29.71 in NW 5.0 mph 6.0 mph 66% 0.00 in 0 W/m2
02:28 35.5 °F 25.3 °F 29.71 in NNW 4.0 mph 9.0 mph 66% 0.00 in 0 W/m2
02:34 35.4 °F 24.8 °F 29.71 in NW 4.0 mph 4.0 mph 65% 0.00 in 0 W/m2
02:40 35.4 °F 24.8 °F 29.71 in West 6.0 mph 9.0 mph 65% 0.00 in 0 W/m2
02:46 35.3 °F 24.3 °F 29.71 in NW 6.0 mph 9.0 mph 64% 0.00 in 0 W/m2
02:52 35.2 °F 24.6 °F 29.71 in WNW 4.0 mph 4.0 mph 65% 0.00 in 0 W/m2
02:58 35.2 °F 23.9 °F 29.71 in NW 5.0 mph 5.0 mph 63% 0.00 in 0 W/m2
03:04 35.2 °F 23.9 °F 29.71 in WNW 5.0 mph 6.0 mph 63% 0.00 in 0 W/m2
03:10 35.1 °F 24.5 °F 29.72 in WNW 3.0 mph 3.0 mph 65% 0.00 in 0 W/m2
03:16 35.0 °F 24.4 °F 29.72 in NNW 3.0 mph 4.0 mph 65% 0.00 in 0 W/m2
03:22 34.9 °F 24.7 °F 29.72 in WSW 3.0 mph 3.0 mph 66% 0.00 in 0 W/m2
03:28 34.8 °F 25.0 °F 29.72 in NNW 3.0 mph 3.0 mph 67% 0.00 in 0 W/m2
03:34 34.9 °F 25.0 °F 29.72 in NNW 4.0 mph 5.0 mph 67% 0.00 in 0 W/m2
03:40 34.9 °F 25.4 °F 29.72 in West 5.0 mph 8.0 mph 68% 0.00 in 0 W/m2
03:46 34.7 °F 24.9 °F 29.72 in NW 5.0 mph 9.0 mph 67% 0.00 in 0 W/m2
03:52 34.4 °F 24.6 °F 29.72 in NNW 5.0 mph 12.0 mph 67% 0.00 in 0 W/m2
03:58 34.2 °F 24.0 °F 29.73 in NW 5.0 mph 12.0 mph 66% 0.00 in 0 W/m2
04:04 34.1 °F 24.3 °F 29.73 in NW 5.0 mph 8.0 mph 67% 0.00 in 0 W/m2
04:10 34.0 °F 24.5 °F 29.73 in North 4.0 mph 10.0 mph 68% 0.00 in 0 W/m2
04:16 34.0 °F 24.9 °F 29.73 in West 4.0 mph 10.0 mph 69% 0.00 in 0 W/m2
04:28 33.9 °F 24.8 °F 29.74 in WNW 4.0 mph 6.0 mph 69% 0.00 in 0 W/m2
04:34 33.8 °F 24.4 °F 29.74 in WNW 5.0 mph 8.0 mph 68% 0.00 in 0 W/m2
04:40 33.6 °F 24.5 °F 29.74 in WNW 4.0 mph 4.0 mph 69% 0.00 in 0 W/m2
04:46 33.4 °F 24.3 °F 29.74 in NNW 4.0 mph 6.0 mph 69% 0.00 in 0 W/m2
04:52 33.1 °F 24.4 °F 29.75 in WNW 4.0 mph 4.0 mph 70% 0.00 in 0 W/m2
04:58 32.8 °F 24.1 °F 29.75 in West 3.0 mph 8.0 mph 70% 0.00 in 0 W/m2
05:04 32.7 °F 24.0 °F 29.76 in NW 4.0 mph 4.0 mph 70% 0.00 in 0 W/m2
05:10 32.5 °F 23.8 °F 29.76 in WNW 3.0 mph 4.0 mph 70% 0.00 in 0 W/m2
05:16 32.3 °F 23.9 °F 29.76 in NW 3.0 mph 4.0 mph 71% 0.00 in 0 W/m2
05:22 32.3 °F 23.6 °F 29.76 in NW 3.0 mph 4.0 mph 70% 0.00 in 0 W/m2
05:28 32.1 °F 23.4 °F 29.76 in WNW 3.0 mph 4.0 mph 70% 0.00 in 0 W/m2
05:30 32.0 °F 23.7 °F 29.77 in NW 3.0 mph 3.0 mph 71% 0.00 in 0 W/m2
05:36 31.8 °F 23.5 °F 29.77 in NNW 2.0 mph 3.0 mph 71% 0.00 in 0 W/m2
05:42 31.8 °F 23.8 °F 29.77 in NNW 1.0 mph 2.0 mph 72% 0.00 in 0 W/m2
05:48 31.7 °F 23.7 °F 29.77 in NNW 1.0 mph 2.0 mph 72% 0.00 in 0 W/m2
05:54 31.6 °F 23.9 °F 29.77 in NNW 1.0 mph 5.0 mph 73% 0.00 in 0 W/m2
06:00 31.7 °F 24.0 °F 29.78 in NNW 1.0 mph 2.0 mph 73% 0.00 in 0 W/m2
06:06 31.8 °F 24.1 °F 29.78 in NW 1.0 mph 2.0 mph 73% 0.00 in 0 W/m2
06:12 31.8 °F 24.1 °F 29.78 in NW 2.0 mph 2.0 mph 73% 0.00 in 0 W/m2
06:18 31.7 °F 23.7 °F 29.78 in NNW 2.0 mph 3.0 mph 72% 0.00 in 0 W/m2
06:24 31.7 °F 23.7 °F 29.79 in SW 2.0 mph 4.0 mph 72% 0.00 in 0 W/m2
06:30 31.6 °F 23.6 °F 29.79 in WNW 2.0 mph 2.0 mph 72% 0.00 in 0 W/m2
06:36 31.9 °F 23.9 °F 29.79 in NW 3.0 mph 4.0 mph 72% 0.00 in 0 W/m2
06:42 32.1 °F 24.1 °F 29.80 in NW 3.0 mph 3.0 mph 72% 0.00 in 5 W/m2
07:00 32.3 °F 24.3 °F 29.81 in NNW 3.0 mph 3.0 mph 72% 0.00 in 23 W/m2
07:06 32.1 °F 24.1 °F 29.81 in NNW 2.0 mph 3.0 mph 72% 0.00 in 18 W/m2
07:12 32.0 °F 24.0 °F 29.82 in NW 3.0 mph 3.0 mph 72% 0.00 in 21 W/m2
07:18 32.0 °F 24.3 °F 29.82 in WNW 2.0 mph 4.0 mph 73% 0.00 in 23 W/m2
07:24 32.1 °F 24.4 °F 29.82 in WNW 2.0 mph 5.0 mph 73% 0.00 in 25 W/m2
07:30 32.3 °F 24.6 °F 29.82 in North 2.0 mph 2.0 mph 73% 0.00 in 47 W/m2
07:36 32.5 °F 24.5 °F 29.83 in NW 3.0 mph 8.0 mph 72% 0.00 in 40 W/m2
07:42 32.5 °F 24.5 °F 29.83 in NW 3.0 mph 3.0 mph 72% 0.00 in 132 W/m2
07:48 32.8 °F 24.8 °F 29.83 in WNW 2.0 mph 4.0 mph 72% 0.00 in 100 W/m2
07:54 33.3 °F 24.6 °F 29.83 in NW 3.0 mph 5.0 mph 70% 0.00 in 209 W/m2
08:00 33.7 °F 25.0 °F 29.83 in NNW 4.0 mph 4.0 mph 70% 0.00 in 213 W/m2
08:06 34.3 °F 25.5 °F 29.83 in WNW 3.0 mph 4.0 mph 70% 0.00 in 185 W/m2
08:12 34.4 °F 25.3 °F 29.84 in NW 4.0 mph 4.0 mph 69% 0.00 in 236 W/m2
08:18 34.6 °F 25.5 °F 29.84 in NNW 4.0 mph 5.0 mph 69% 0.00 in 258 W/m2
08:24 35.1 °F 25.9 °F 29.84 in NW 4.0 mph 4.0 mph 69% 0.00 in 265 W/m2
08:30 35.3 °F 26.1 °F 29.85 in NNW 4.0 mph 4.0 mph 69% 0.00 in 318 W/m2
08:36 35.3 °F 25.8 °F 29.85 in WNW 5.0 mph 9.0 mph 68% 0.00 in 160 W/m2
08:42 35.2 °F 25.7 °F 29.85 in NNW 5.0 mph 7.0 mph 68% 0.00 in 239 W/m2
08:48 35.0 °F 25.5 °F 29.85 in NW 5.0 mph 7.0 mph 68% 0.00 in 137 W/m2
08:54 34.8 °F 25.3 °F 29.85 in North 5.0 mph 5.0 mph 68% 0.00 in 165 W/m2
09:00 35.1 °F 25.9 °F 29.86 in NNW 4.0 mph 6.0 mph 69% 0.00 in 125 W/m2
09:06 35.8 °F 26.3 °F 29.86 in NW 5.0 mph 12.0 mph 68% 0.00 in 348 W/m2
09:12 36.1 °F 26.6 °F 29.86 in NW 5.0 mph 6.0 mph 68% 0.00 in 167 W/m2
09:18 35.9 °F 25.6 °F 29.86 in WNW 4.0 mph 9.0 mph 66% 0.00 in 244 W/m2
09:24 35.7 °F 25.4 °F 29.86 in NNE 4.0 mph 5.0 mph 66% 0.00 in 239 W/m2
09:30 35.2 °F 25.0 °F 29.86 in NNW 6.0 mph 9.0 mph 66% 0.00 in 207 W/m2
09:36 35.5 °F 25.6 °F 29.87 in NW 7.0 mph 9.0 mph 67% 0.00 in 244 W/m2
09:42 35.4 °F 24.8 °F 29.87 in NNW 5.0 mph 6.0 mph 65% 0.00 in 223 W/m2
09:48 36.1 °F 26.6 °F 29.87 in WSW 5.0 mph 7.0 mph 68% 0.00 in 232 W/m2
09:54 36.7 °F 25.3 °F 29.87 in WNW 5.0 mph 6.0 mph 63% 0.00 in 352 W/m2
10:00 37.3 °F 25.8 °F 29.87 in NW 5.0 mph 5.0 mph 63% 0.00 in 237 W/m2
10:06 37.9 °F 27.2 °F 29.88 in NW 4.0 mph 8.0 mph 65% 0.00 in 793 W/m2
10:12 37.1 °F 25.7 °F 29.88 in NNW 4.0 mph 9.0 mph 63% 0.00 in 250 W/m2
10:18 36.7 °F 25.7 °F 29.88 in NW 6.0 mph 9.0 mph 64% 0.00 in 345 W/m2
10:24 37.7 °F 26.2 °F 29.88 in North 5.0 mph 6.0 mph 63% 0.00 in 385 W/m2
10:30 36.6 °F 24.4 °F 29.88 in NW 5.0 mph 5.0 mph 61% 0.00 in 209 W/m2
10:36 38.1 °F 26.2 °F 29.88 in WNW 6.0 mph 6.0 mph 62% 0.00 in 596 W/m2
10:42 38.0 °F 26.1 °F 29.88 in WNW 5.0 mph 11.0 mph 62% 0.00 in 255 W/m2
10:48 39.5 °F 26.3 °F 29.88 in West 5.0 mph 11.0 mph 59% 0.00 in 833 W/m2
10:54 38.7 °F 26.4 °F 29.88 in West 5.0 mph 8.0 mph 61% 0.00 in 149 W/m2
11:00 39.6 °F 28.0 °F 29.88 in NNW 5.0 mph 5.0 mph 63% 0.00 in 802 W/m2
11:06 40.3 °F 28.3 °F 29.89 in North 5.0 mph 9.0 mph 62% 0.00 in 788 W/m2
11:12 40.2 °F 28.2 °F 29.89 in NNW 5.0 mph 5.0 mph 62% 0.00 in 812 W/m2
11:18 40.5 °F 27.3 °F 29.89 in NNW 4.0 mph 7.0 mph 59% 0.00 in 823 W/m2
11:24 41.4 °F 29.3 °F 29.89 in NW 4.0 mph 5.0 mph 62% 0.00 in 842 W/m2
11:30 40.5 °F 27.3 °F 29.89 in NW 6.0 mph 6.0 mph 59% 0.00 in 846 W/m2
11:36 41.1 °F 27.0 °F 29.89 in WNW 6.0 mph 8.0 mph 57% 0.00 in 904 W/m2
11:48 40.9 °F 27.2 °F 29.89 in NW 5.0 mph 7.0 mph 58% 0.00 in 856 W/m2
11:54 41.7 °F 28.8 °F 29.89 in NW 5.0 mph 5.0 mph 60% 0.00 in 861 W/m2
12:00 41.7 °F 28.0 °F 29.89 in West 5.0 mph 6.0 mph 58% 0.00 in 856 W/m2
12:06 42.1 °F 27.1 °F 29.90 in North 5.0 mph 7.0 mph 55% 0.00 in 856 W/m2
12:12 41.9 °F 27.3 °F 29.90 in NW 6.0 mph 6.0 mph 56% 0.00 in 879 W/m2
12:18 42.0 °F 28.7 °F 29.90 in NW 6.0 mph 6.0 mph 59% 0.00 in 935 W/m2
12:24 42.3 °F 27.7 °F 29.90 in NW 6.0 mph 6.0 mph 56% 0.00 in 912 W/m2
12:30 42.4 °F 28.2 °F 29.90 in NNW 5.0 mph 13.0 mph 57% 0.00 in 960 W/m2
12:36 42.9 °F 29.5 °F 29.90 in North 6.0 mph 13.0 mph 59% 0.00 in 919 W/m2
12:42 42.9 °F 30.8 °F 29.90 in NNW 6.0 mph 10.0 mph 62% 0.00 in 990 W/m2
12:48 43.4 °F 27.4 °F 29.90 in NW 5.0 mph 10.0 mph 53% 0.00 in 977 W/m2
12:54 42.4 °F 27.4 °F 29.90 in NW 6.0 mph 6.0 mph 55% 0.00 in 914 W/m2
13:00 43.5 °F 27.9 °F 29.90 in West 5.0 mph 5.0 mph 54% 0.00 in 471 W/m2
13:06 43.2 °F 29.0 °F 29.90 in WNW 5.0 mph 7.0 mph 57% 0.00 in 991 W/m2
13:12 43.8 °F 28.2 °F 29.90 in NW 5.0 mph 8.0 mph 54% 0.00 in 1002 W/m2
13:18 43.1 °F 28.0 °F 29.90 in NW 6.0 mph 9.0 mph 55% 0.00 in 898 W/m2
13:24 43.8 °F 30.0 °F 29.89 in WSW 5.0 mph 6.0 mph 58% 0.00 in 905 W/m2
13:30 44.2 °F 28.1 °F 29.90 in North 5.0 mph 6.0 mph 53% 0.00 in 872 W/m2
13:36 43.3 °F 30.3 °F 29.90 in WNW 7.0 mph 7.0 mph 60% 0.00 in 868 W/m2
13:42 43.1 °F 27.1 °F 29.90 in WNW 6.0 mph 11.0 mph 53% 0.00 in 868 W/m2
13:48 43.4 °F 27.4 °F 29.90 in WNW 5.0 mph 11.0 mph 53% 0.00 in 870 W/m2
13:54 42.9 °F 25.5 °F 29.90 in NW 6.0 mph 11.0 mph 50% 0.00 in 867 W/m2
14:00 43.3 °F 27.8 °F 29.90 in NW 7.0 mph 7.0 mph 54% 0.00 in 861 W/m2
14:06 44.0 °F 27.0 °F 29.90 in WNW 6.0 mph 10.0 mph 51% 0.00 in 854 W/m2
14:12 43.6 °F 28.0 °F 29.91 in West 6.0 mph 6.0 mph 54% 0.00 in 849 W/m2
14:18 44.5 °F 29.3 °F 29.91 in WNW 6.0 mph 7.0 mph 55% 0.00 in 879 W/m2
14:24 45.1 °F 28.5 °F 29.91 in NNW 4.0 mph 8.0 mph 52% 0.00 in 835 W/m2
14:30 44.2 °F 29.5 °F 29.91 in WNW 5.0 mph 7.0 mph 56% 0.00 in 916 W/m2
14:36 43.8 °F 27.3 °F 29.91 in WNW 6.0 mph 9.0 mph 52% 0.00 in 835 W/m2
14:42 43.9 °F 27.4 °F 29.91 in NW 6.0 mph 6.0 mph 52% 0.00 in 824 W/m2
14:48 43.8 °F 27.8 °F 29.91 in NW 6.0 mph 9.0 mph 53% 0.00 in 863 W/m2
14:54 43.2 °F 27.2 °F 29.91 in WNW 7.0 mph 8.0 mph 53% 0.00 in 828 W/m2
15:00 43.8 °F 28.2 °F 29.91 in West 6.0 mph 6.0 mph 54% 0.00 in 768 W/m2
15:06 43.5 °F 27.0 °F 29.91 in West 5.0 mph 6.0 mph 52% 0.00 in 749 W/m2
15:12 43.5 °F 26.1 °F 29.91 in WNW 6.0 mph 6.0 mph 50% 0.00 in 731 W/m2
15:18 44.1 °F 28.0 °F 29.91 in NW 5.0 mph 6.0 mph 53% 0.00 in 747 W/m2
15:24 44.4 °F 28.3 °F 29.91 in WSW 5.0 mph 5.0 mph 53% 0.00 in 740 W/m2
15:30 44.8 °F 26.8 °F 29.91 in WSW 5.0 mph 8.0 mph 49% 0.00 in 719 W/m2
15:36 44.2 °F 27.7 °F 29.91 in NW 6.0 mph 8.0 mph 52% 0.00 in 701 W/m2
15:42 44.4 °F 27.4 °F 29.91 in NNW 6.0 mph 6.0 mph 51% 0.00 in 687 W/m2
15:48 44.6 °F 26.6 °F 29.91 in WNW 6.0 mph 6.0 mph 49% 0.00 in 673 W/m2
15:54 44.8 °F 25.8 °F 29.91 in WNW 6.0 mph 6.0 mph 47% 0.00 in 659 W/m2
16:00 44.9 °F 26.4 °F 29.91 in NW 5.0 mph 5.0 mph 48% 0.00 in 647 W/m2
16:06 45.2 °F 25.6 °F 29.91 in WNW 5.0 mph 8.0 mph 46% 0.00 in 631 W/m2
16:12 45.6 °F 26.0 °F 29.91 in WNW 5.0 mph 7.0 mph 46% 0.00 in 613 W/m2
16:18 45.8 °F 25.6 °F 29.91 in WSW 5.0 mph 10.0 mph 45% 0.00 in 599 W/m2
16:24 45.7 °F 25.0 °F 29.91 in West 5.0 mph 9.0 mph 44% 0.00 in 584 W/m2
16:30 46.0 °F 27.9 °F 29.91 in NW 5.0 mph 5.0 mph 49% 0.00 in 564 W/m2
16:36 46.2 °F 26.5 °F 29.91 in West 5.0 mph 9.0 mph 46% 0.00 in 517 W/m2
16:42 46.2 °F 24.9 °F 29.91 in NNW 5.0 mph 11.0 mph 43% 0.00 in 533 W/m2
16:48 46.1 °F 23.7 °F 29.91 in West 6.0 mph 11.0 mph 41% 0.00 in 515 W/m2
16:54 46.1 °F 25.4 °F 29.91 in NW 5.0 mph 6.0 mph 44% 0.00 in 499 W/m2
17:00 46.7 °F 25.4 °F 29.91 in WNW 4.0 mph 4.0 mph 43% 0.00 in 480 W/m2
17:06 46.3 °F 25.6 °F 29.91 in NW 5.0 mph 9.0 mph 44% 0.00 in 462 W/m2
17:12 46.3 °F 24.4 °F 29.91 in NW 5.0 mph 7.0 mph 42% 0.00 in 445 W/m2
17:14 46.1 °F 23.7 °F 29.91 in NW 5.0 mph 7.0 mph 41% 0.00 in 439 W/m2
17:20 46.0 °F 24.7 °F 29.91 in West 6.0 mph 9.0 mph 43% 0.00 in 420 W/m2
17:26 45.9 °F 22.9 °F 29.91 in West 6.0 mph 9.0 mph 40% 0.00 in 403 W/m2
17:32 45.9 °F 22.9 °F 29.91 in NNW 6.0 mph 6.0 mph 40% 0.00 in 383 W/m2
17:38 45.8 °F 22.8 °F 29.91 in WNW 5.0 mph 6.0 mph 40% 0.00 in 364 W/m2
17:44 45.9 °F 24.1 °F 29.91 in West 5.0 mph 5.0 mph 42% 0.00 in 315 W/m2
17:50 46.0 °F 21.8 °F 29.92 in NW 4.0 mph 4.0 mph 38% 0.00 in 287 W/m2
17:56 46.0 °F 21.8 °F 29.92 in WNW 5.0 mph 5.0 mph 38% 0.00 in 202 W/m2
18:02 46.2 °F 20.0 °F 29.92 in WNW 5.0 mph 6.0 mph 35% 0.00 in 213 W/m2
18:08 45.6 °F 20.1 °F 29.92 in WNW 5.0 mph 9.0 mph 36% 0.00 in 195 W/m2
18:14 45.5 °F 19.4 °F 29.92 in West 6.0 mph 7.0 mph 35% 0.00 in 179 W/m2
18:20 45.4 °F 19.3 °F 29.92 in WNW 5.0 mph 5.0 mph 35% 0.00 in 163 W/m2
18:26 45.1 °F 19.7 °F 29.92 in WNW 6.0 mph 8.0 mph 36% 0.00 in 169 W/m2
18:32 44.9 °F 18.9 °F 29.93 in NW 6.0 mph 6.0 mph 35% 0.00 in 76 W/m2
18:38 44.9 °F 20.2 °F 29.92 in WNW 5.0 mph 6.0 mph 37% 0.00 in 113 W/m2
18:44 44.8 °F 20.7 °F 29.92 in WNW 5.0 mph 11.0 mph 38% 0.00 in 130 W/m2
18:50 44.9 °F 20.8 °F 29.92 in NW 5.0 mph 5.0 mph 38% 0.00 in 118 W/m2
18:56 44.7 °F 20.0 °F 29.92 in West 4.0 mph 7.0 mph 37% 0.00 in 83 W/m2
19:02 44.4 °F 21.0 °F 29.92 in NW 4.0 mph 4.0 mph 39% 0.00 in 19 W/m2
19:08 44.1 °F 19.5 °F 29.92 in WNW 3.0 mph 4.0 mph 37% 0.00 in 18 W/m2
19:14 43.9 °F 19.9 °F 29.92 in NNW 3.0 mph 9.0 mph 38% 0.00 in 16 W/m2
19:20 43.7 °F 19.1 °F 29.92 in WNW 3.0 mph 3.0 mph 37% 0.00 in 12 W/m2
19:26 43.6 °F 19.6 °F 29.93 in WNW 3.0 mph 4.0 mph 38% 0.00 in 11 W/m2
19:32 43.4 °F 18.8 °F 29.93 in WNW 3.0 mph 4.0 mph 37% 0.00 in 7 W/m2
19:44 42.8 °F 19.5 °F 29.93 in WNW 2.0 mph 2.0 mph 39% 0.00 in 0 W/m2
19:50 42.4 °F 19.2 °F 29.93 in WNW 1.0 mph 1.0 mph 39% 0.00 in 0 W/m2
19:56 42.2 °F 18.4 °F 29.93 in NW 1.0 mph 4.0 mph 38% 0.00 in 0 W/m2
20:02 42.0 °F 19.4 °F 29.93 in NW 1.0 mph 1.0 mph 40% 0.00 in 0 W/m2
20:08 41.8 °F 18.6 °F 29.93 in WNW 1.0 mph 3.0 mph 39% 0.00 in 0 W/m2
20:14 41.6 °F 19.0 °F 29.93 in WNW 1.0 mph 2.0 mph 40% 0.00 in 0 W/m2
20:20 41.7 °F 18.5 °F 29.93 in WNW 1.0 mph 2.0 mph 39% 0.00 in 0 W/m2
20:26 41.5 °F 18.9 °F 29.94 in WNW 1.0 mph 2.0 mph 40% 0.00 in 0 W/m2
20:32 41.2 °F 19.2 °F 29.94 in Calm   2.0 mph 41% 0.00 in 0 W/m2
20:38 40.9 °F 19.0 °F 29.94 in Calm   2.0 mph 41% 0.00 in 0 W/m2
20:44 40.5 °F 19.2 °F 29.94 in Calm   2.0 mph 42% 0.00 in 0 W/m2
20:50 40.2 °F 18.9 °F 29.94 in Calm     42% 0.00 in 0 W/m2
20:56 40.0 °F 18.7 °F 29.95 in Calm   1.0 mph 42% 0.00 in 0 W/m2
21:02 39.8 °F 19.1 °F 29.95 in Calm     43% 0.00 in 0 W/m2
21:08 39.9 °F 18.6 °F 29.95 in WNW 1.0 mph 2.0 mph 42% 0.00 in 0 W/m2
21:14 40.0 °F 18.7 °F 29.95 in WNW 1.0 mph 1.0 mph 42% 0.00 in 0 W/m2
21:20 40.0 °F 18.7 °F 29.96 in WNW 1.0 mph 1.0 mph 42% 0.00 in 0 W/m2
21:26 39.9 °F 18.6 °F 29.96 in WNW 1.0 mph 1.0 mph 42% 0.00 in 0 W/m2
21:32 39.7 °F 19.0 °F 29.96 in Calm   1.0 mph 43% 0.00 in 0 W/m2
21:38 39.6 °F 19.5 °F 29.96 in Calm   1.0 mph 44% 0.00 in 0 W/m2
21:44 39.6 °F 18.9 °F 29.96 in WNW 1.0 mph 1.0 mph 43% 0.00 in 0 W/m2
21:50 39.5 °F 19.4 °F 29.96 in WNW 1.0 mph 1.0 mph 44% 0.00 in 0 W/m2
21:56 39.4 °F 19.3 °F 29.97 in Calm   2.0 mph 44% 0.00 in 0 W/m2
22:02 39.4 °F 19.8 °F 29.97 in WNW 1.0 mph 1.0 mph 45% 0.00 in 0 W/m2
22:08 39.3 °F 19.7 °F 29.97 in Calm   1.0 mph 45% 0.00 in 0 W/m2
22:14 39.3 °F 20.2 °F 29.97 in Calm   2.0 mph 46% 0.00 in 0 W/m2
22:20 39.6 °F 20.5 °F 29.97 in WNW 1.0 mph 1.0 mph 46% 0.00 in 0 W/m2
22:26 39.5 °F 20.4 °F 29.97 in Calm   1.0 mph 46% 0.00 in 0 W/m2
22:32 39.5 °F 20.4 °F 29.97 in Calm     46% 0.00 in 0 W/m2
22:38 39.4 °F 20.3 °F 29.97 in Calm     46% 0.00 in 0 W/m2
22:44 39.3 °F 20.7 °F 29.97 in Calm     47% 0.00 in 0 W/m2
22:50 38.9 °F 20.4 °F 29.97 in Calm   1.0 mph 47% 0.00 in 0 W/m2
22:56 38.5 °F 21.0 °F 29.97 in Calm   1.0 mph 49% 0.00 in 0 W/m2
23:02 38.0 °F 21.0 °F 29.97 in Calm     50% 0.00 in 0 W/m2
23:08 37.6 °F 21.1 °F 29.97 in Calm     51% 0.00 in 0 W/m2
23:14 37.1 °F 21.1 °F 29.97 in Calm     52% 0.00 in 0 W/m2
23:20 36.6 °F 21.5 °F 29.97 in Calm     54% 0.00 in 0 W/m2
23:26 36.2 °F 21.1 °F 29.97 in Calm     54% 0.00 in 0 W/m2
23:32 35.7 °F 21.9 °F 29.97 in Calm     57% 0.00 in 0 W/m2
23:38 35.2 °F 21.9 °F 29.97 in Calm     58% 0.00 in 0 W/m2
23:44 34.6 °F 23.7 °F 29.98 in Calm     64% 0.00 in 0 W/m2
23:50 34.1 °F 23.6 °F 29.98 in Calm     65% 0.00 in 0 W/m2
23:56 33.7 °F 23.5 °F 29.98 in Calm     66% 0.00 in 0 W/m2
Country Meadow, Clay, NY, USA
Compliments of Weather Underground - 2 mb